SCP
0 0 0 0 0 0 -0 -0 0 0 0 0 0 0 0 0 0 0 0 0 -0 -0 -0 -0 -0 -0 -0 -0 -0 -0 -0 -0 -0 -0 -0 -0 -0 -0 -0 -0 -0 -0 0 -0 -0 -0 -0 -0 -0
0 0 0 0 0 0 0 0 0 0 0 0 0 0 0 0 0 0 0 0 -0 -0 -0 -0 -0 -0 -0 -0 -0 -0 -0 -0 -0 -0 -0 -0 -0 -0 -0 0 -0 -0 -0 -0 -0 -0 -0 -0 -0
0 0 0 0 0 0 0 0 0 0 0 0 0 0 0 0 0 0 0 -0 -0 -0 -0 -0 -0 -0 -0 -0 -0 -0 -0 -0 -0 -0 -0 -0 0 0 0 0 0 0 0 0 0 0 0 -0 -0
0 0 0 0 0 0 0 0 0 0 0 0 0 0 0 0 0 0 0 -0 -0 -0 -0 -0 -0 -0 -0 -0 -0 -0 -0 0 0 0 0 0 0 0 0 0 0 0 0 0 0 0 0 0 -0
0 0 0 0 0 0 0 0 0 0 0 0 0 0 0 0 0 0 0 0 0 0 0 0 0 -0 -0 -0 -0 -0 0 0 0 0 0 0 0 0 0 0 0 0 0 0 0 0 0 0 0
0 0 0 0 0 0 0 0 0 0 0 0 0 0 0 0 0 0 0 0 0 0 0 0 0 0 0 0 0 0 0 0 0 0 0 0 0 0 0 0 0 0 0 0 0 0 0 0 0
0 0 0 0 0 0 0 0 0 0 0 0 0 0 0 0 0 0 0 0 0 0 0 0 0 0 0 0 0 0 0 0 0 0 0 0 0 0 0 0 0 0 0 0 0 0 0 0 0
0 0 0 0 0 0 0 0 0 0 0 0 0 0 0 0 0 0 0 0 0 0 0 0 0 0 0 0 0 0 0 0 0 0 0 0 0 0 0 0 0 0 0 0 0 0 0 0 0
0 0 0 0 0 0 0 0 0 0 0 0 0 0 0 0 0 0 0 0 0 0 0 0 0 0 0 0 0 0 0 0 0 0 0 0 0 0 0 0 0 0 0 0 0 0 0 0 0
0 0 0 0 0 0 0 0 0 0 0 0 0 0 0 0 0 0 0 0 0 0 0 0 0 0 0 0 0 0 0 0 0 0 0 0 0 0 0 0 0 0 0 0 0 0 0 0 0
0 0 0 0 0 0 0 0 0 0 0 0 0 0 0 0 0 0 0 0 0 0 0 0 0 0 0 0 0 0 0 0 0 0 0 0 0 0 0 0 0 0 0 0 0 0 0 0 0
0 0 0 0 0 0 0 0 0 0 0 0 0 0 0 0 0 0 0 0 0 0 0 0 0 0 0 0 0 0 0 0 0 0 0 0 0 0 0 0 0 0 0 0 0 0 0 0 0
0 0 0 0 0 0 0 0 0 0 0 0 0 0 0 0 0 0 0 0 0 0 0 0 0 0 0 0 0 0 0 0 0 0 0 0 0 0 0 0 0 0 0 0 0 0 0 0 0
0 0 0 0 0 0 0 0 0 0 0 0 0 0 0 0 0 0 0 0 0 0 0 0 0 0 0 0 0 0 0 0 0 0 0 0 0 0 0 0 0 0 0 0 0 0 0 0 0
0 0 0 0 0 0 0 0 0 0 0 0 0 0 0 0 0 0 0 0 0 0 0 0 0 0 0 0 0 0 0 0 0 0 0 0 0 0 0 0 0 0 0 0 0 0 0 0 0
0 0 0 0 0 0 0 0 0 0 0 0 0 0 0 0 0 0 0 0 0 0 0 0 0 0 0 0 0 0 0 0 0 0 0 0 0 0 0 0 0 0 0 0 0 0 0 0 0
0 0 0 0 0 0 0 0 0 0 0 0 0 0 0 0 0 0 0 0 0 0 0 0 0 0 0 0 0 0 0 0 0 0 0 0 0 0 0 0 0 0 0 0 0 0 0 0 0
0 0 0 0 0 0 0 0 0 0 0 0 0 0 0 0 0 0 0 0 0 0 0 0 0 0 0 0 0 0 0 0 0 0 0 0 0 0 0 0 0 0 0 0 0 0 0 0 0
0 0 0 0 0 0 0 0 0 0 0 0 0 0 0 0 0 0 0 0 0 0 0 0 0 0 0 0 0 0 0 0 0 0 0 0 0 0 0 0 0 0 0 0 0 0 0 0 0
0 0 0 0 0 0 0 0 0 0 0 0 0 0 0 0 0 0 0 0 0 0 0 0 0 0 0 0 0 0 0 0 0 0 0 0 0 0 0 0 0 0 0 0 0 0 0 0 0
0 0 0 0 0 0 0 0 0 0 0 0 0 0 0 0 0 0 0 0 0 0 0 0 0 0 0 0 0 0 0 0 0 0 0 0 0 0 0 0 0 0 0 0 0 0 0 0 0
0 0 0 0 0 0 0 0 0 0 0 0 0 0 0 0 0 0 0 0 0 0 0 0 0 0 0 0 0 0 0 0 0 0 0 0 0 0 0 0 0 0 0 0 0 0 0 0 0
0 0 0 0 0 0 0 0 0 0 0 0 0 0 0 0 0 0 0 0 0 0 0 0 0 0 0 0 0 0 0 0 0 0 0 0 0 0 0 0 0 0 0 0 0 0 0 0 0
0 0 0 0 0 0 0 0 0 0 0 0 0 0 0 0 0 0 0 0 0 0 0 0 0 0 0 0 0 0 0 0 0 0 0 0 0 0 0 0 0 0 0 0 0 0 0 0 0
0 0 0 0 0 0 0 0 0 0 0 0 0 0 0 0 0 0 0 0 0 0 0 0 0 0 0 0 0 0 0 0 0 0 0 0 0 0 0 0 0 0 0 0 0 0 0 0 0
0 0 0 0 0 0 0 0 0 0 0 0 0 0 0 0 0 0 0 0 0 0 0 0 0 0 0 0 0 0 0 0 0 0 0 0 0 0 0 0 0 0 0 0 0 0 0 0 0
0 0 0 0 0 0 0 0 0 0 0 0 0 0 0 0 0 0 0 0 0 0 0 0 0 0 0 0 0 0 0 0 0 0 0 0 0 0 0 0 0 0 0 0 0 0 0 0 0
0 0 0 0 0 0 0 0 0 0 0 0 0 0 0 0 0 0 0 0 0 0 0 0 0 0 0 0 0 0 0 0 0 0 0 0 0 0 0 0 0 0 0 0 0 0 0 0 0
0 0 0 0 0 0 0 0 0 0 0 0 0 0 0 0 0 0 0 0 0 0 0 0 0 0 0 0 0 0 0 0 0 0 0 0 0 0 0 0 0 0 0 0 0 0 0 0 0
0 0 0 0 0 0 0 0 0 0 0 0 0 0 0 0 0 0 0 0 0 0 0 0 0 0 0 0 0 0 0 0 0 0 0 0 0 0 0 0 0 0 0 0 0 0 0 0 0
Wind_Speed_500mb
20 10 4 8 4 7 16 19 7 4 3 12 15 14 15 34 13 12 38 25 33 34 45 42 39 36 33 33 30 26 24 21 16 12 8 5 5 6 8 9 12 18 16 8 15 18 22 13 6
13 10 2 12 6 11 12 14 12 11 19 17 8 6 1 11 19 29 34 33 38 32 44 41 40 39 36 33 30 27 22 18 15 10 5 4 2 4 5 7 12 13 16 6 11 14 14 17 14
13 17 7 6 8 14 7 10 15 21 17 17 11 8 11 11 18 30 17 44 38 28 42 42 40 38 35 33 31 28 24 18 13 10 7 3 1 2 3 8 6 7 6 9 9 11 9 10 11
12 4 10 6 18 17 5 7 19 15 12 0 6 15 15 20 19 19 31 46 41 28 34 43 39 36 32 30 28 26 21 16 11 8 5 2 2 5 4 10 6 3 2 6 8 10 11 6 7
15 10 7 11 21 22 6 20 1 16 17 18 7 16 20 16 17 19 42 45 42 35 33 35 38 36 33 31 26 24 21 17 13 10 6 2 3 5 4 8 8 6 5 6 9 12 10 9 9
6 8 8 15 19 15 10 21 12 13 28 20 8 11 15 17 24 29 41 41 39 39 33 36 38 35 32 29 27 25 22 18 14 10 6 3 2 3 3 4 5 5 4 7 9 12 12 12 11
6 6 10 17 13 12 9 13 9 17 15 16 1 2 22 28 28 33 37 38 39 33 32 37 41 37 33 31 28 26 23 19 15 12 11 8 5 4 4 4 4 3 5 8 11 13 15 16 14
6 6 11 8 10 2 12 5 6 9 5 15 11 3 22 38 33 36 35 36 35 36 31 33 42 41 40 36 31 28 25 21 17 16 16 14 11 8 7 7 7 6 8 12 15 17 19 18 16
3 5 9 13 12 7 15 7 7 7 3 5 10 6 29 35 37 39 39 35 35 39 32 37 38 33 36 38 33 28 27 24 22 20 19 17 13 10 13 13 7 10 17 20 23 25 25 23 20
9 5 7 12 12 8 12 6 14 7 14 13 15 13 27 30 39 41 43 43 43 41 36 39 42 35 34 23 24 29 28 27 23 20 21 20 18 15 12 9 9 16 23 27 30 28 29 30 26
13 8 7 10 17 14 10 2 4 6 12 25 37 37 31 31 35 39 39 40 48 39 41 41 44 40 37 30 28 27 31 28 26 26 23 19 14 12 13 17 23 28 32 34 35 33 31 32 30
7 21 18 5 5 5 4 9 10 20 16 1 6 26 39 38 38 40 39 41 46 42 41 45 40 41 31 35 37 29 30 34 29 21 20 16 19 22 25 29 31 33 32 32 32 37 37 32 35
10 12 6 14 7 16 10 13 13 34 28 31 20 21 31 28 36 37 38 37 42 36 40 43 36 35 39 36 35 34 34 28 24 23 23 27 30 25 24 25 28 30 32 39 41 32 29 34 38
14 17 13 17 22 17 7 11 10 20 37 49 32 35 35 37 37 37 39 38 38 43 37 41 38 44 44 40 38 36 31 27 26 24 22 20 24 26 31 32 31 29 27 25 28 32 34 36 39
5 10 15 26 20 7 6 12 28 51 24 29 35 44 42 35 42 48 40 44 41 40 37 45 49 46 48 46 40 31 28 29 24 23 22 25 31 32 29 21 19 22 26 33 39 40 40 41 39
6 6 8 11 19 8 12 13 3 25 41 32 29 28 30 37 38 37 47 44 46 46 48 55 54 50 45 35 34 29 29 27 26 27 28 29 27 22 19 18 23 30 38 44 45 43 43 42 43
11 9 14 5 15 9 17 11 7 18 25 29 35 35 31 27 29 28 41 43 50 51 54 55 55 53 48 44 39 32 31 29 29 29 28 27 23 20 20 25 34 41 43 40 40 39 41 44 46
13 10 11 18 14 10 13 26 17 18 25 27 33 37 36 32 33 29 32 42 47 51 56 56 54 55 51 46 41 35 32 29 28 27 25 23 21 22 27 34 39 39 37 35 35 38 39 42 46
12 6 14 3 7 10 18 23 26 24 39 36 44 45 44 42 34 36 37 45 50 50 54 59 61 57 55 50 48 40 34 30 28 24 22 21 24 28 34 36 34 34 34 35 36 38 41 41 43
22 16 15 13 12 6 12 24 21 21 23 46 51 55 51 52 48 47 45 53 56 58 56 58 61 59 50 46 42 37 33 31 28 23 23 25 28 30 31 29 29 30 31 33 36 38 41 40 35
15 18 10 14 3 10 10 20 20 24 52 57 60 54 53 33 46 47 50 53 58 61 58 56 62 57 51 50 45 39 31 26 24 26 26 24 25 25 24 24 26 29 33 35 38 39 40 42 39
16 8 20 13 8 8 6 13 12 10 11 15 36 42 43 46 31 42 48 54 59 61 55 56 59 62 55 47 40 33 29 27 27 23 21 21 17 18 20 24 27 30 32 34 36 38 40 41 40
8 5 5 9 6 9 10 3 11 22 26 17 23 41 41 42 46 47 49 50 56 59 62 63 62 57 52 45 38 36 31 26 22 20 16 14 14 16 19 22 26 29 32 34 36 38 39 39 38
16 11 10 6 8 2 21 16 36 23 24 17 18 50 47 45 43 46 46 55 61 62 63 61 59 54 47 42 38 32 27 23 20 15 12 10 12 15 19 24 28 31 32 33 34 35 37 37 37
10 12 4 6 3 20 19 17 43 12 14 5 16 46 49 45 48 56 64 69 68 65 63 61 56 52 45 39 33 28 22 20 16 12 8 8 11 15 19 24 28 31 35 38 39 37 35 34 34
24 28 13 14 12 7 5 17 17 6 7 13 38 46 45 46 51 60 68 69 65 64 63 59 54 48 42 37 30 24 21 17 14 9 6 8 12 17 21 25 29 33 37 40 44 44 42 39 37
9 17 23 10 7 2 8 13 17 12 7 5 28 43 47 49 57 64 64 62 63 65 61 55 50 44 38 31 25 24 22 18 11 7 5 8 13 17 22 28 32 35 38 42 46 45 43 42 39
17 6 8 5 11 11 11 11 13 8 14 12 16 31 47 51 55 56 57 59 61 60 55 50 44 39 32 27 29 26 20 14 9 5 4 7 13 20 25 29 33 36 41 44 47 48 45 41 37
10 10 9 8 7 5 1 7 3 8 6 18 16 40 48 53 55 57 56 57 58 56 52 47 41 35 32 33 28 23 18 13 8 5 3 10 16 19 23 27 32 35 39 41 43 44 43 39 36
10 25 22 6 6 5 4 10 5 9 11 14 18 37 46 49 50 54 54 57 57 54 48 43 38 36 36 32 28 22 18 14 8 0 6 10 13 17 20 24 30 36 40 40 39 38 36 32 34
Wind_Direction_500mb
260 238 287 315 243 216 257 238 85 92 7 64 13 35 47 49 22 111 147 138 172 174 166 165 163 164 160 161 160 158 154 150 142 138 132 106 65 41 34 46 51 46 91 49 23 33 46 45 198
235 192 174 271 243 246 257 165 136 175 81 106 72 41 352 81 68 127 157 139 165 171 164 165 163 164 163 162 164 162 162 157 153 153 141 107 45 24 46 78 81 76 84 51 26 31 35 43 51
178 156 239 197 228 242 325 49 159 82 106 153 126 29 37 88 100 130 180 148 161 173 167 165 164 166 167 166 169 165 165 163 164 163 155 147 107 84 111 125 97 93 53 32 29 15 19 14 25
118 159 266 256 248 248 351 82 94 107 153 240 119 115 88 79 127 181 150 153 156 170 174 167 167 167 166 165 161 158 166 173 177 175 174 160 135 78 131 152 121 135 333 350 351 353 352 338 340
149 218 243 214 250 266 107 65 353 152 161 173 203 146 107 125 152 167 144 157 157 165 184 173 175 172 170 174 175 177 180 185 188 180 164 100 46 47 105 165 189 221 266 317 335 338 333 323 315
242 277 236 233 245 242 115 150 209 244 166 117 174 141 104 148 141 148 149 159 159 180 189 184 182 181 180 183 186 189 191 191 188 190 189 156 116 83 84 159 193 228 280 316 334 342 343 325 284
266 194 255 264 250 141 155 162 201 224 166 158 176 136 133 144 158 156 151 160 163 189 199 189 186 188 189 190 194 197 200 198 200 201 205 195 199 201 205 193 197 226 279 301 310 317 325 330 308
279 322 256 236 268 307 82 120 346 314 150 125 131 358 164 156 162 159 157 168 173 181 210 194 191 195 195 198 198 201 201 203 206 212 211 216 225 235 244 237 234 258 292 301 306 309 312 315 322
238 278 262 236 212 76 108 193 164 272 55 161 151 61 125 167 159 161 166 171 171 183 204 185 190 205 198 203 204 203 202 204 210 216 220 230 241 252 257 249 271 308 321 316 312 309 309 303 305
216 229 270 8 39 39 98 301 152 177 209 208 165 180 153 167 167 173 174 176 181 183 194 194 191 194 198 204 205 206 207 209 215 232 242 247 246 236 239 266 296 299 299 298 299 300 301 289 288
201 220 36 64 31 10 345 310 263 266 258 210 196 199 187 177 180 186 186 188 195 195 194 199 194 199 204 193 204 217 210 214 223 229 236 239 224 211 226 264 284 288 287 289 289 290 294 292 285
263 231 274 24 73 268 230 333 315 244 253 64 165 195 197 186 192 196 198 203 213 201 203 206 200 195 196 193 209 213 212 213 218 212 216 234 254 266 268 270 277 280 287 289 290 291 291 286 280
230 269 254 267 215 246 280 253 255 276 252 252 262 188 178 200 203 206 206 209 221 213 201 206 197 191 198 202 204 201 209 209 213 223 230 236 251 257 265 272 280 283 280 288 296 298 281 270 269
360 327 277 256 229 240 204 248 230 248 242 239 242 241 227 210 210 216 213 208 208 215 206 207 195 199 196 196 200 208 216 218 224 236 241 239 260 269 274 278 278 278 284 293 298 299 295 287 280
333 299 256 226 206 249 157 266 231 230 217 212 228 227 229 235 228 220 217 212 210 212 208 203 197 199 200 206 212 213 218 224 231 244 254 262 269 274 274 270 270 282 296 299 300 298 295 291 289
237 200 268 4 146 158 178 250 98 212 196 208 218 218 226 225 225 221 211 217 200 206 206 208 203 197 205 206 217 217 221 229 238 250 260 265 268 262 259 266 282 294 300 302 303 302 301 298 295
206 254 207 255 192 133 195 263 90 162 187 218 216 213 211 216 221 221 210 205 197 207 207 212 210 214 215 215 210 218 224 229 241 249 257 258 252 249 265 284 295 301 304 305 305 304 303 302 300
202 216 243 238 200 220 214 255 256 205 196 218 200 206 211 213 215 224 203 195 191 207 211 212 213 211 214 209 217 211 220 224 236 249 248 242 246 262 282 295 301 305 307 309 309 307 305 303 303
234 268 259 239 172 185 227 250 259 244 205 208 217 220 229 224 221 215 220 203 191 207 212 207 209 206 203 208 212 216 214 224 238 236 235 246 267 283 293 301 304 306 309 311 311 311 311 312 312
242 251 258 297 156 183 262 263 264 253 236 212 216 223 233 234 209 209 201 199 194 203 209 208 199 209 213 212 212 210 213 221 227 230 241 261 279 291 299 303 307 312 316 318 318 319 316 316 318
235 218 212 216 156 228 329 275 231 243 239 236 234 235 228 209 205 218 212 203 194 198 203 199 199 202 196 204 204 205 213 207 218 237 256 272 286 295 302 308 314 318 318 319 317 316 315 314 315
248 221 228 239 115 233 178 278 225 252 228 204 216 216 219 218 202 212 202 194 190 193 195 193 186 190 195 198 198 200 204 208 224 247 265 279 287 296 306 314 319 320 320 318 318 315 313 309 309
222 31 336 192 148 53 218 309 246 214 242 205 212 210 216 215 207 197 195 191 183 183 183 188 188 186 188 191 195 200 203 216 230 244 255 267 287 305 317 322 322 321 321 319 318 315 312 309 304
113 87 55 44 102 239 220 171 267 229 227 227 194 194 195 190 190 188 181 176 178 181 187 186 183 182 185 189 192 199 207 218 229 229 246 277 304 318 322 325 324 322 322 325 326 321 318 314 307
165 129 170 211 209 233 166 172 246 302 308 233 194 175 179 184 181 176 174 176 178 184 183 180 179 179 181 185 190 200 212 215 213 225 251 284 309 319 325 328 329 331 332 335 333 330 330 329 325
196 185 194 229 206 241 324 212 242 208 65 113 165 165 170 174 176 175 177 176 182 180 178 178 177 179 180 186 196 205 202 200 209 218 253 298 319 329 333 334 338 340 338 334 330 329 328 329 332
202 230 252 322 134 214 216 267 290 168 162 159 141 155 165 170 174 174 175 183 181 177 176 178 177 179 185 194 200 193 195 199 205 222 270 321 330 333 340 344 345 342 336 331 325 321 319 318 322
195 305 167 195 210 227 238 250 242 206 194 187 163 160 169 174 174 177 176 181 178 176 176 177 181 187 192 193 190 192 192 198 203 221 289 319 344 352 350 348 345 339 333 326 318 313 310 306 307
172 233 217 175 256 256 230 253 9 15 190 187 186 170 172 174 172 173 174 177 176 175 178 182 186 191 193 189 190 191 196 195 200 220 335 4 0 353 350 347 342 337 332 327 324 320 310 301 300
298 219 234 229 205 244 36 275 55 4 332 166 183 170 172 172 173 170 172 176 178 179 183 188 193 193 188 189 191 195 195 197 199 51 19 6 353 348 346 344 343 341 338 333 331 333 330 319 311
Wind_Speed_850mb
20 10 4 8 4 7 16 19 7 4 3 12 15 14 15 34 13 12 38 25 33 34 45 42 39 36 33 33 30 26 24 21 16 12 8 5 5 6 8 9 12 18 16 8 15 18 22 13 6
13 10 2 12 6 11 12 14 12 11 19 17 8 6 1 11 19 29 34 33 38 32 44 41 40 39 36 33 30 27 22 18 15 10 5 4 2 4 5 7 12 13 16 6 11 14 14 17 14
13 17 7 6 8 14 7 10 15 21 17 17 11 8 11 11 18 30 17 44 38 28 42 42 40 38 35 33 31 28 24 18 13 10 7 3 1 2 3 8 6 7 6 9 9 11 9 10 11
12 4 10 6 18 17 5 7 19 15 12 0 6 15 15 20 19 19 31 46 41 28 34 43 39 36 32 30 28 26 21 16 11 8 5 2 2 5 4 10 6 3 2 6 8 10 11 6 7
15 10 7 11 21 22 6 20 1 16 17 18 7 16 20 16 17 19 42 45 42 35 33 35 38 36 33 31 26 24 21 17 13 10 6 2 3 5 4 8 8 6 5 6 9 12 10 9 9
6 8 8 15 19 15 10 21 12 13 28 20 8 11 15 17 24 29 41 41 39 39 33 36 38 35 32 29 27 25 22 18 14 10 6 3 2 3 3 4 5 5 4 7 9 12 12 12 11
6 6 10 17 13 12 9 13 9 17 15 16 1 2 22 28 28 33 37 38 39 33 32 37 41 37 33 31 28 26 23 19 15 12 11 8 5 4 4 4 4 3 5 8 11 13 15 16 14
6 6 11 8 10 2 12 5 6 9 5 15 11 3 22 38 33 36 35 36 35 36 31 33 42 41 40 36 31 28 25 21 17 16 16 14 11 8 7 7 7 6 8 12 15 17 19 18 16
3 5 9 13 12 7 15 7 7 7 3 5 10 6 29 35 37 39 39 35 35 39 32 37 38 33 36 38 33 28 27 24 22 20 19 17 13 10 13 13 7 10 17 20 23 25 25 23 20
9 5 7 12 12 8 12 6 14 7 14 13 15 13 27 30 39 41 43 43 43 41 36 39 42 35 34 23 24 29 28 27 23 20 21 20 18 15 12 9 9 16 23 27 30 28 29 30 26
13 8 7 10 17 14 10 2 4 6 12 25 37 37 31 31 35 39 39 40 48 39 41 41 44 40 37 30 28 27 31 28 26 26 23 19 14 12 13 17 23 28 32 34 35 33 31 32 30
7 21 18 5 5 5 4 9 10 20 16 1 6 26 39 38 38 40 39 41 46 42 41 45 40 41 31 35 37 29 30 34 29 21 20 16 19 22 25 29 31 33 32 32 32 37 37 32 35
10 12 6 14 7 16 10 13 13 34 28 31 20 21 31 28 36 37 38 37 42 36 40 43 36 35 39 36 35 34 34 28 24 23 23 27 30 25 24 25 28 30 32 39 41 32 29 34 38
14 17 13 17 22 17 7 11 10 20 37 49 32 35 35 37 37 37 39 38 38 43 37 41 38 44 44 40 38 36 31 27 26 24 22 20 24 26 31 32 31 29 27 25 28 32 34 36 39
5 10 15 26 20 7 6 12 28 51 24 29 35 44 42 35 42 48 40 44 41 40 37 45 49 46 48 46 40 31 28 29 24 23 22 25 31 32 29 21 19 22 26 33 39 40 40 41 39
6 6 8 11 19 8 12 13 3 25 41 32 29 28 30 37 38 37 47 44 46 46 48 55 54 50 45 35 34 29 29 27 26 27 28 29 27 22 19 18 23 30 38 44 45 43 43 42 43
11 9 14 5 15 9 17 11 7 18 25 29 35 35 31 27 29 28 41 43 50 51 54 55 55 53 48 44 39 32 31 29 29 29 28 27 23 20 20 25 34 41 43 40 40 39 41 44 46
13 10 11 18 14 10 13 26 17 18 25 27 33 37 36 32 33 29 32 42 47 51 56 56 54 55 51 46 41 35 32 29 28 27 25 23 21 22 27 34 39 39 37 35 35 38 39 42 46
12 6 14 3 7 10 18 23 26 24 39 36 44 45 44 42 34 36 37 45 50 50 54 59 61 57 55 50 48 40 34 30 28 24 22 21 24 28 34 36 34 34 34 35 36 38 41 41 43
22 16 15 13 12 6 12 24 21 21 23 46 51 55 51 52 48 47 45 53 56 58 56 58 61 59 50 46 42 37 33 31 28 23 23 25 28 30 31 29 29 30 31 33 36 38 41 40 35
15 18 10 14 3 10 10 20 20 24 52 57 60 54 53 33 46 47 50 53 58 61 58 56 62 57 51 50 45 39 31 26 24 26 26 24 25 25 24 24 26 29 33 35 38 39 40 42 39
16 8 20 13 8 8 6 13 12 10 11 15 36 42 43 46 31 42 48 54 59 61 55 56 59 62 55 47 40 33 29 27 27 23 21 21 17 18 20 24 27 30 32 34 36 38 40 41 40
8 5 5 9 6 9 10 3 11 22 26 17 23 41 41 42 46 47 49 50 56 59 62 63 62 57 52 45 38 36 31 26 22 20 16 14 14 16 19 22 26 29 32 34 36 38 39 39 38
16 11 10 6 8 2 21 16 36 23 24 17 18 50 47 45 43 46 46 55 61 62 63 61 59 54 47 42 38 32 27 23 20 15 12 10 12 15 19 24 28 31 32 33 34 35 37 37 37
10 12 4 6 3 20 19 17 43 12 14 5 16 46 49 45 48 56 64 69 68 65 63 61 56 52 45 39 33 28 22 20 16 12 8 8 11 15 19 24 28 31 35 38 39 37 35 34 34
24 28 13 14 12 7 5 17 17 6 7 13 38 46 45 46 51 60 68 69 65 64 63 59 54 48 42 37 30 24 21 17 14 9 6 8 12 17 21 25 29 33 37 40 44 44 42 39 37
9 17 23 10 7 2 8 13 17 12 7 5 28 43 47 49 57 64 64 62 63 65 61 55 50 44 38 31 25 24 22 18 11 7 5 8 13 17 22 28 32 35 38 42 46 45 43 42 39
17 6 8 5 11 11 11 11 13 8 14 12 16 31 47 51 55 56 57 59 61 60 55 50 44 39 32 27 29 26 20 14 9 5 4 7 13 20 25 29 33 36 41 44 47 48 45 41 37
10 10 9 8 7 5 1 7 3 8 6 18 16 40 48 53 55 57 56 57 58 56 52 47 41 35 32 33 28 23 18 13 8 5 3 10 16 19 23 27 32 35 39 41 43 44 43 39 36
10 25 22 6 6 5 4 10 5 9 11 14 18 37 46 49 50 54 54 57 57 54 48 43 38 36 36 32 28 22 18 14 8 0 6 10 13 17 20 24 30 36 40 40 39 38 36 32 34
Wind_Direction_850mb
260 238 287 315 243 216 257 238 85 92 7 64 13 35 47 49 22 111 147 138 172 174 166 165 163 164 160 161 160 158 154 150 142 138 132 106 65 41 34 46 51 46 91 49 23 33 46 45 198
235 192 174 271 243 246 257 165 136 175 81 106 72 41 352 81 68 127 157 139 165 171 164 165 163 164 163 162 164 162 162 157 153 153 141 107 45 24 46 78 81 76 84 51 26 31 35 43 51
178 156 239 197 228 242 325 49 159 82 106 153 126 29 37 88 100 130 180 148 161 173 167 165 164 166 167 166 169 165 165 163 164 163 155 147 107 84 111 125 97 93 53 32 29 15 19 14 25
118 159 266 256 248 248 351 82 94 107 153 240 119 115 88 79 127 181 150 153 156 170 174 167 167 167 166 165 161 158 166 173 177 175 174 160 135 78 131 152 121 135 333 350 351 353 352 338 340
149 218 243 214 250 266 107 65 353 152 161 173 203 146 107 125 152 167 144 157 157 165 184 173 175 172 170 174 175 177 180 185 188 180 164 100 46 47 105 165 189 221 266 317 335 338 333 323 315
242 277 236 233 245 242 115 150 209 244 166 117 174 141 104 148 141 148 149 159 159 180 189 184 182 181 180 183 186 189 191 191 188 190 189 156 116 83 84 159 193 228 280 316 334 342 343 325 284
266 194 255 264 250 141 155 162 201 224 166 158 176 136 133 144 158 156 151 160 163 189 199 189 186 188 189 190 194 197 200 198 200 201 205 195 199 201 205 193 197 226 279 301 310 317 325 330 308
279 322 256 236 268 307 82 120 346 314 150 125 131 358 164 156 162 159 157 168 173 181 210 194 191 195 195 198 198 201 201 203 206 212 211 216 225 235 244 237 234 258 292 301 306 309 312 315 322
238 278 262 236 212 76 108 193 164 272 55 161 151 61 125 167 159 161 166 171 171 183 204 185 190 205 198 203 204 203 202 204 210 216 220 230 241 252 257 249 271 308 321 316 312 309 309 303 305
216 229 270 8 39 39 98 301 152 177 209 208 165 180 153 167 167 173 174 176 181 183 194 194 191 194 198 204 205 206 207 209 215 232 242 247 246 236 239 266 296 299 299 298 299 300 301 289 288
201 220 36 64 31 10 345 310 263 266 258 210 196 199 187 177 180 186 186 188 195 195 194 199 194 199 204 193 204 217 210 214 223 229 236 239 224 211 226 264 284 288 287 289 289 290 294 292 285
263 231 274 24 73 268 230 333 315 244 253 64 165 195 197 186 192 196 198 203 213 201 203 206 200 195 196 193 209 213 212 213 218 212 216 234 254 266 268 270 277 280 287 289 290 291 291 286 280
230 269 254 267 215 246 280 253 255 276 252 252 262 188 178 200 203 206 206 209 221 213 201 206 197 191 198 202 204 201 209 209 213 223 230 236 251 257 265 272 280 283 280 288 296 298 281 270 269
360 327 277 256 229 240 204 248 230 248 242 239 242 241 227 210 210 216 213 208 208 215 206 207 195 199 196 196 200 208 216 218 224 236 241 239 260 269 274 278 278 278 284 293 298 299 295 287 280
333 299 256 226 206 249 157 266 231 230 217 212 228 227 229 235 228 220 217 212 210 212 208 203 197 199 200 206 212 213 218 224 231 244 254 262 269 274 274 270 270 282 296 299 300 298 295 291 289
237 200 268 4 146 158 178 250 98 212 196 208 218 218 226 225 225 221 211 217 200 206 206 208 203 197 205 206 217 217 221 229 238 250 260 265 268 262 259 266 282 294 300 302 303 302 301 298 295
206 254 207 255 192 133 195 263 90 162 187 218 216 213 211 216 221 221 210 205 197 207 207 212 210 214 215 215 210 218 224 229 241 249 257 258 252 249 265 284 295 301 304 305 305 304 303 302 300
202 216 243 238 200 220 214 255 256 205 196 218 200 206 211 213 215 224 203 195 191 207 211 212 213 211 214 209 217 211 220 224 236 249 248 242 246 262 282 295 301 305 307 309 309 307 305 303 303
234 268 259 239 172 185 227 250 259 244 205 208 217 220 229 224 221 215 220 203 191 207 212 207 209 206 203 208 212 216 214 224 238 236 235 246 267 283 293 301 304 306 309 311 311 311 311 312 312
242 251 258 297 156 183 262 263 264 253 236 212 216 223 233 234 209 209 201 199 194 203 209 208 199 209 213 212 212 210 213 221 227 230 241 261 279 291 299 303 307 312 316 318 318 319 316 316 318
235 218 212 216 156 228 329 275 231 243 239 236 234 235 228 209 205 218 212 203 194 198 203 199 199 202 196 204 204 205 213 207 218 237 256 272 286 295 302 308 314 318 318 319 317 316 315 314 315
248 221 228 239 115 233 178 278 225 252 228 204 216 216 219 218 202 212 202 194 190 193 195 193 186 190 195 198 198 200 204 208 224 247 265 279 287 296 306 314 319 320 320 318 318 315 313 309 309
222 31 336 192 148 53 218 309 246 214 242 205 212 210 216 215 207 197 195 191 183 183 183 188 188 186 188 191 195 200 203 216 230 244 255 267 287 305 317 322 322 321 321 319 318 315 312 309 304
113 87 55 44 102 239 220 171 267 229 227 227 194 194 195 190 190 188 181 176 178 181 187 186 183 182 185 189 192 199 207 218 229 229 246 277 304 318 322 325 324 322 322 325 326 321 318 314 307
165 129 170 211 209 233 166 172 246 302 308 233 194 175 179 184 181 176 174 176 178 184 183 180 179 179 181 185 190 200 212 215 213 225 251 284 309 319 325 328 329 331 332 335 333 330 330 329 325
196 185 194 229 206 241 324 212 242 208 65 113 165 165 170 174 176 175 177 176 182 180 178 178 177 179 180 186 196 205 202 200 209 218 253 298 319 329 333 334 338 340 338 334 330 329 328 329 332
202 230 252 322 134 214 216 267 290 168 162 159 141 155 165 170 174 174 175 183 181 177 176 178 177 179 185 194 200 193 195 199 205 222 270 321 330 333 340 344 345 342 336 331 325 321 319 318 322
195 305 167 195 210 227 238 250 242 206 194 187 163 160 169 174 174 177 176 181 178 176 176 177 181 187 192 193 190 192 192 198 203 221 289 319 344 352 350 348 345 339 333 326 318 313 310 306 307
172 233 217 175 256 256 230 253 9 15 190 187 186 170 172 174 172 173 174 177 176 175 178 182 186 191 193 189 190 191 196 195 200 220 335 4 0 353 350 347 342 337 332 327 324 320 310 301 300
298 219 234 229 205 244 36 275 55 4 332 166 183 170 172 172 173 170 172 176 178 179 183 188 193 193 188 189 191 195 195 197 199 51 19 6 353 348 346 344 343 341 338 333 331 333 330 319 311